Starlink 31280

operational
NORAD ID: 58843 Int'l Des: 2024-017 Owner: SPXS Country: US Constellation: starlink
LEOCIRCULAR

About Starlink 31280

Description loading...

Live Position

Loading 3D Globe...

Upcoming Passes

Altitude History

Altitude vs Time

uPlot chart will show altitude changes over time

Two-Line Element Set

1 58843U 24017T 25352.63235564 .00020857 00000-0 71495-3 0 9994
2 58843 53.1582 220.9864 0001188 102.9298 257.1836 15.30172843107648
Epoch: Dec 18, 2025 • Age: 10 hours

Current Status

Altitude 482.9 km
Velocity 7.62 km/s
Sub-Earth Point -25.30°S, 50.87°W
Launch Date Jan 24, 2024
Age 1.9 years
Type internet

Technical Details

Classification Payload
Mass 730.00 kg
Dry Mass 700.00 kg
Total Mass 730.00 kg
Length 0.30 m
Diameter 4.10 m
Span 29.00 m
Shape Box + pan
Manufacturer SPXS
Bus Type Starlink V2M
Phase Status In Orbit
Owner/State SPXS/US

Large Constellations

Loading constellations...